Home   Weather   Lillesand   Past weeks

Flag for Norway Past Weather in Lillesand, Norway — Yesterday and Last 2 Weeks

Now
27 °F

Chilly.


Feels Like: 27 °F
Forecast: 26 / 34 °F
Wind: 2 mph from Northeast

Location: Kristiansand / Kjevik

Current Time: Dec 2, 2016 at 7:15:56 pm

Latest Report: Dec 2, 2016 at 5:00 pm


Visibility: N/A

Pressure: 30.20 "Hg

Humidity: 83%

Dew Point: 22 °F

Location of LillesandLocation

Past Weather in Lillesand — Graph

°F

Lillesand Temperature Yesterday

Maximum temperature yesterday: 51 °F (at 2:00 pm)
Minimum temperature yesterday: 32 °F (at 9:00 am)
Average temperature yesterday: 42 °F

High & Low Weather Summary for the Past Weeks

 TemperatureHumidityPressure
High51 °F (Nov 26, 1:00 pm)100% (Nov 19, 5:00 am)30.53 "Hg (Nov 19, 5:00 am)
Low23 °F (Nov 28, 7:00 am)35% (Nov 27, 1:00 pm)28.85 "Hg (Nov 18, 3:00 am)
Average40 °F80%29.84 "Hg
* Reported Nov 17 5:00 pm — Dec 2 5:00 pm, Lillesand, Weather by CustomWeather, © 2016

Note: Actual official high and low records may vary slightly from our data, if they occured in-between our weather recording intervals... More about our weather records

Advertising

Lillesand Weather History for the Previous 24 Hours

Scroll right to see more
 ConditionsComfort  
Time TempWeatherWind HumidityBarometerVisibility
5:00 pm
Fri, Dec 2
27 °FChilly.2 mph83%30.20 "HgN/A
4:00 pm32 °FChilly.1 mph66%30.18 "HgN/A
3:00 pm40 °FQuite cool.2 mph46%30.16 "HgN/A
2:00 pm43 °FQuite cool.1 mph38%30.15 "HgN/A
1:00 pm43 °FQuite cool.1 mph37%30.14 "HgN/A
12:00 pm34 °FChilly.1 mph67%30.13 "HgN/A
11:00 am30 °FChilly.2 mph77%30.12 "HgN/A
10:00 am27 °FChilly.1 mph75%30.11 "HgN/A
9:00 am28 °FChilly.1 mph72%30.09 "HgN/A
8:00 am27 °FChilly.1 mph76%30.06 "HgN/A
7:00 am32 °FChilly.1 mph53%30.05 "HgN/A
6:00 am34 °FChilly.2 mph53%30.04 "HgN/A
5:00 am38 °FChilly.6 mph41%30.01 "HgN/A
4:00 am31 °FChilly.2 mph61%30.01 "HgN/A
3:00 am38 °FChilly.5 mph44%29.99 "HgN/A
2:00 am36 °FChilly.2 mph51%29.97 "HgN/A
1:00 am38 °FChilly.3 mph47%29.95 "HgN/A
12:00 am38 °FChilly.3 mph47%29.92 "HgN/A
11:00 pm
Thu, Dec 1
40 °FQuite cool.3 mph48%29.88 "HgN/A
10:00 pm41 °FQuite cool.5 mph46%29.85 "HgN/A
9:00 pm42 °FQuite cool.10 mph41%29.83 "HgN/A
8:00 pm44 °FQuite cool.8 mph40%29.79 "HgN/A
7:00 pm45 °FQuite cool.5 mph50%29.77 "HgN/A
Weather by CustomWeather, © 2016

See weather overviewHow to use our weather pages